Change the Weather History Date:

Wednesday, January 9, 2013

  Actual Average Record
Temperature  
Mean Temperature 52 °F -  
Max Temperature 62 °F 61 °F 78 °F (2012)
Min Temperature 41 °F 44 °F 35 °F (2000)
Degree Days  
Heating Degree Days 14    
Growing Degree Days 2 (Base 50)    
Moisture  
Dew Point 48 °F    
Average Humidity 84    
Maximum Humidity 100    
Minimum Humidity 68    
Precipitation  
Precipitation 0.00 in - - ()
Sea Level Pressure  
Sea Level Pressure 30.07 in    
Wind  
Wind Speed 3 mph (SSE)    
Max Wind Speed 10 mph    
Max Gust Speed 75 mph    
Visibility 6 miles    
Events Fog    
Averages and records for this station are not official NWS values.
T = Trace of Precipitation, MM = Missing Value Source: NWS Daily Summary

Daily Weather History Graph

Daily Weather History Graph

Search for Another Location

Airport or City:

Trip Planner

Search our weather history database for the weather conditions in past years. The results will help you decide how hot, cold, wet, or windy it might be!

Date:

Astronomy

Jan. 09, 2013 Rise Set
Actual Time 7:02 AM PST 5:05 PM PST
Civil Twilight 6:35 AM PST 5:32 PM PST
Nautical Twilight 6:04 AM PST 6:03 PM PST
Astronomical Twilight 5:34 AM PST 6:33 PM PST
Moon 4:47 AM PST (1/9) 3:11 PM PST (1/9)
Length of Visible Light 10h 57m
Length of Day
10h 02m
Waning Crescent, 6% of the Moon is Illuminated
Jan 9
Waning Crescent
Jan 11
New
Jan 18
First Quarter
Jan 26
Full
Feb 3
Last Quarter

Hourly Weather History & Observations

Time (PST) Temp. Windchill Dew Point Humidity Pressure Visibility Wind Dir Wind Speed Gust Speed Precip Events Conditions
12:54 AM 45.0 °F - 45.0 °F 100% 30.11 in - Calm Calm - N/A   Clear
1:54 AM 44.1 °F 42.5 °F 44.1 °F 100% 30.12 in - NNE 3.5 mph - N/A   Clear
2:54 AM 45.0 °F 42.6 °F 44.1 °F 97% 30.12 in - NE 4.6 mph - N/A   Clear
3:14 AM 44.6 °F 43.1 °F 44.6 °F 100% 30.10 in - Variable 3.5 mph 74.8 mph N/A   Squalls
3:54 AM 41.0 °F - 41.0 °F 100% 30.09 in - Calm Calm - N/A   Clear
4:54 AM 43.0 °F 40.3 °F 43.0 °F 100% 30.09 in - NE 4.6 mph - N/A   Clear
5:54 AM 45.1 °F - 38.5 °F 77% 30.10 in 7.0 mi Calm Calm - N/A   Mostly Cloudy
6:54 AM 43.0 °F - 39.0 °F 86% 30.11 in 7.0 mi Calm Calm - N/A   Mostly Cloudy
7:54 AM 45.0 °F - 40.1 °F 83% 30.12 in 7.0 mi Calm Calm - N/A   Mostly Cloudy
8:54 AM 52.0 °F - 42.6 °F 70% 30.13 in 7.0 mi Calm Calm - N/A   Overcast
9:54 AM 59.0 °F - 48.4 °F 68% 30.14 in 7.0 mi Calm Calm - N/A   Overcast
10:54 AM 62.6 °F - 51.8 °F 68% 30.12 in 7.0 mi South 10.4 mph - N/A   Overcast
11:09 AM 60.8 °F - 51.8 °F 72% 30.11 in 2.0 mi South 10.4 mph - N/A   Overcast
11:54 AM 60.8 °F - 50.0 °F 68% 30.10 in 2.0 mi SW 8.1 mph - N/A   Overcast
12:54 PM 60.1 °F - 50.2 °F 70% 30.08 in 1.0 mi South 8.1 mph - N/A   Overcast
1:54 PM 60.8 °F - 50.0 °F 68% 30.06 in 0.5 mi South 6.9 mph - N/A Fog Fog
2:38 PM 57.2 °F - 51.8 °F 82% 30.05 in 3.0 mi South 6.9 mph - N/A   Haze
2:54 PM 57.6 °F - 52.5 °F 83% 30.06 in 3.0 mi South 8.1 mph - N/A   Haze
3:54 PM 57.7 °F - 52.3 °F 82% 30.06 in 7.0 mi South 9.2 mph - N/A   Overcast
4:34 PM 57.2 °F - 51.8 °F 82% 30.04 in 7.0 mi WSW 4.6 mph - N/A   Mostly Cloudy
4:54 PM 56.5 °F - 51.6 °F 84% 30.05 in 7.0 mi WSW 3.5 mph - N/A   Mostly Cloudy
5:01 PM 55.4 °F - 51.8 °F 88% 30.05 in - WSW 3.5 mph - N/A   Scattered Clouds
5:41 PM 55.4 °F - 51.8 °F 88% 30.04 in 7.0 mi Calm Calm - N/A   Mostly Cloudy
5:54 PM 56.1 °F - 51.1 °F 83% 30.05 in 7.0 mi Variable 3.5 mph - N/A   Mostly Cloudy
6:54 PM 55.9 °F - 50.9 °F 83% 30.05 in 7.0 mi Calm Calm - N/A   Mostly Cloudy
7:49 PM 57.2 °F - 50.0 °F 77% 30.03 in 7.0 mi East 4.6 mph - N/A   Mostly Cloudy
7:54 PM 56.5 °F - 50.7 °F 81% 30.03 in 7.0 mi East 4.6 mph - N/A   Mostly Cloudy
8:54 PM 54.9 °F - 50.2 °F 84% 30.04 in 7.0 mi Calm Calm - N/A   Mostly Cloudy
9:54 PM 53.8 °F - 49.3 °F 85% 30.05 in 7.0 mi Calm Calm - N/A   Mostly Cloudy
10:54 PM 55.2 °F - 49.3 °F 80% 30.03 in 7.0 mi East 3.5 mph - N/A   Mostly Cloudy
11:42 PM 51.8 °F - 51.8 °F 100% 30.02 in - Calm Calm - N/A   Overcast
11:54 PM 52.0 °F - 51.1 °F 97% 30.02 in - Calm Calm - N/A   Overcast